This demonstration page uses our WeatherBlox Daily Observations layout. Learn more.

Left ArrowRight Arrow

Hourly Observations for December 26, 2020

Temp ( °F °C ) Dew Point ( °F °C ) Humidity (%) Winds ( mph kmh ) Pressure ( in mb ) Visibility ( mi km ) Precip ( " mm )
12:54 am 00:54 Clear 21 -6.1 16 -8.9 81 81 Calm 30.02 1017 10 16.0934 0 0
1:54 am 01:54 Clear 20 -6.7 16 -8.9 85 85 Calm 30.02 1017 10 16.0934 0 0
2:54 am 02:54 Clear 19 -7.2 16 -8.9 88 88 Calm 30 1016 10 16.0934 0 0
3:54 am 03:54 Clear 19 -7.2 15 -9.4 84 84 Calm 29.99 1016 10 16.0934 0 0
4:54 am 04:54 Clear 18 -7.8 14 -10 84 84 Calm 29.99 1016 10 16.0934 0 0
5:54 am 05:54 Clear 18 -7.8 14 -10 84 84 WSW 3 6 29.99 1016 10 16.0934 0 0
6:54 am 06:54 Clear 15 -9.4 12 -11.1 88 88 NNW 5 7 29.99 1016 10 16.0934 0 0
7:54 am 07:54 Sunny 15 -9.4 11 -11.7 84 84 N 6 9 29.99 1016 10 16.0934 0 0
8:54 am 08:54 Sunny 20 -6.7 16 -8.9 85 85 N 5 7 29.99 1016 10 16.0934 0 0
9:54 am 09:54 Sunny 27 -2.8 22 -5.6 81 81 Calm 29.99 1016 10 16.0934 0 0
10:54 am 10:54 Sunny 33 0.6 26 -3.3 75 75 E 6 9 29.98 1015 10 16.0934 0 0
11:54 am 11:54 Sunny 37 2.8 27 -2.8 67 67 E 5 7 29.94 1014 10 16.0934 0 0
12:54 pm 12:54 Sunny 40 4.4 30 -1.1 68 68 ENE 8 13 29.88 1012 10 16.0934 0 0
1:54 pm 13:54 Sunny 42 5.6 30 -1.1 62 62 ENE 7 11 29.86 1011 10 16.0934 0 0
2:54 pm 14:54 Sunny 42 5.6 31 -0.6 65 65 E 9 15 29.83 1010 10 16.0934 0 0
3:54 pm 15:54 Sunny 42 5.6 31 -0.6 65 65 E 7 11 29.83 1010 10 16.0934 0 0
4:54 pm 16:54 Sunny 36 2.2 28 -2.2 73 73 NE 7 11 29.83 1010 10 16.0934 0 0
5:54 pm 17:54 Clear 36 2.2 28 -2.2 73 73 E 3 6 29.8 1009 10 16.0934 0 0
6:54 pm 18:54 Clear 29 -1.7 24 -4.4 82 82 N 5 7 29.79 1009 10 16.0934 0 0
7:54 pm 19:54 Clear 26 -3.3 23 -5 88 88 N 8 13 29.79 1009 10 16.0934 0 0
8:54 pm 20:54 Clear 27 -2.8 23 -5 85 85 N 7 11 29.77 1008 10 16.0934 0 0
9:54 pm 21:54 Clear 28 -2.2 24 -4.4 85 85 Calm 29.75 1007 10 16.0934 0 0
10:54 pm 22:54 Clear 25 -3.9 22 -5.6 88 88 NNW 7 11 29.74 1007 10 16.0934 0 0
11:54 pm 23:54 Clear 27 -2.8 23 -5 85 85 N 6 9 29.72 1006 10 16.0934 0 0

Powered by AerisWeather